AirNav   Air Wisconsin Up To $57,000 Bonus
 
 1400 users online  

15W Dennis Farms Airport
Laingsburg, Michigan, USA

GOING TO LAINGSBURG?


FAA INFORMATION EFFECTIVE 26 JANUARY 2023

Location

FAA Identifier: 15W
Lat/Long: 42-53-39.9000N 084-23-32.0000W
42-53.665000N 084-23.533333W
42.8944167,-84.3922222
(estimated)
Elevation: 828 ft. / 252.4 m (surveyed)
Variation: 05W (1985)
From city: 2 miles W of LAINGSBURG, MI
Time zone: UTC -5 (UTC -4 during Daylight Saving Time)
Zip code: 48848

Airport Operations

Airport use: Open to the public
Activation date: 06/1971
Control tower: no
ARTCC: CLEVELAND CENTER
FSS: LANSING FLIGHT SERVICE STATION
NOTAMs facility: LAN (NOTAM-D service available)
Attendance: IREG
Wind indicator: yes
Segmented circle: no

Airport Communications

CTAF: 122.9
WX ASOS at LAN (11 nm SW): PHONE 517-908-8494
WX AWOS-3 at RNP (13 nm NE): 118.025 (989-729-2967)
WX AWOS-3P at TEW (20 nm S): 119.425 (517-676-5607)

Nearby radio navigation aids

VOR radial/distance  VOR name  Freq  Var
FNTr267/28.7FLINT VORTAC116.9006W

Airport Services

Airframe service: NONE
Powerplant service: NONE
Bottled oxygen: NONE

Runway Information

Runway 9/27

Dimensions: 1880 x 50 ft. / 573 x 15 m
Surface: turf, in fair condition
Runway edge markings: 2 FT YELLOW CONES.
RUNWAY 9  RUNWAY 27
Latitude: 42-53.662637N42-53.665733N
Longitude: 084-23.743947W084-23.322933W
Elevation: 828.0 ft.827.0 ft.
Traffic pattern: leftleft
Runway heading: 094 magnetic, 089 true274 magnetic, 269 true
Obstructions: 84 ft. tree, 952 ft. from runway, 11:1 slope to clear87 ft. tree, 931 ft. from runway, 113 ft. right of centerline, 10:1 slope to clear

Airport Ownership and Management from official FAA records

Ownership: Privately-owned
Owner: KEVIN DENNIS
8715 ALWARD RD
LAINGSBURG, MI 48848-9244
Phone 517-763-1206
Manager: KEVIN DENNIS
8715 ALWARD RD
LAINGSBURG, MI 48848-9244
Phone 517-763-1206

Airport Operational Statistics

Aircraft operations: 100/year *
50% transient general aviation
50% local general aviation
* for 12-month period ending 31 December 2021

Additional Remarks

DEER & BIRDS ON & INVOF ARPT.
FOR FLD CONDS CALL AMGR.
FOR CD CTC GREAT LAKES APCH AT 269-459-3345, WHEN APCH CLSD CTC CLEVELAND ARTCC AT 440-774-0224/0490.

Instrument Procedures

There are no published instrument procedures at 15W.

Some nearby airports with instrument procedures:

KLAN - Capital Region International Airport (11 nm SW)
KRNP - Owosso Community Airport (13 nm NE)
4D0 - Abrams Municipal Airport (17 nm SW)
KTEW - Mason Jewett Field Airport (20 nm S)
KOZW - Livingston County Spencer J Hardy Airport (24 nm SE)
 
Loc | Ops | Rwys | IFR | FBO | Links
Com | Nav | Svcs | Stats | Notes
Area around 15W (Dennis Farms Airport)
 
Road maps at: MapQuest Bing Google
 
Aerial photo
No photo
 
Sectional chart

 
Airport distance calculator
Flying to Dennis Farms Airport? Find the distance to fly.

From to 15W

Sunrise and sunset
Times for 02-Feb-2023
 Local
(UTC-5)
 Zulu
(UTC)
Morning civil twilight07:2212:22
Sunrise07:5212:52
Sunset17:5022:50
Evening civil twilight18:2023:20

Current date and time
Zulu (UTC)  02-Feb-2023 18:08:12
Local (UTC-5)  02-Feb-2023 13:08:12
 
METAR
KLAN 
11nm SW 
021753Z 25019G23KT 10SM CLR 00/M08 A2993 RMK AO2 SLP147 T00001078 10000 21072 56024
KRNP 
13nm NE 
021755Z AUTO 24016G23KT 10SM CLR 00/M07 A2990 RMK AO2 T00031072 10005 21065
KTEW 
20nm S 
021755Z AUTO 25011G18KT 10SM CLR 00/M10 A2994 RMK AO2 T10051099 11005 21079
TAF
KLAN 
11nm SW 
021143Z 0212/0312 21013G20KT P6SM OVC100 FM021600 25011G16KT P6SM BKN150 FM022000 27012G18KT P6SM BKN025 FM030000 31013KT P6SM OVC040
NOTAMs
Click for the latest NOTAMs
NOTAMs are issued by the DoD/FAA and will open in a separate window not controlled by AirNav.

 

 
 

Would you like to see your business listed on this page?

 If your business provides an interesting product or service to pilots, flight crews, aircraft, or users of the Dennis Farms Airport, you should consider listing it here.  To start the listing process, click on the button below
 
Add a business
 

Other Pages about Dennis Farms Airport

Page from the Michigan Airport Directory (PDF)
 
Update a link
 
Copyright © AirNav, LLC. All rights reserved. Privacy Policy  Contact